Change the Weather History Date:

Wednesday, October 3, 2012

  Actual Average (KJMS) Record (KJMS)
Temperature  
Mean Temperature 42 °F 50 °F  
Max Temperature 48 °F 62 °F 90 °F (1938)
Min Temperature 37 °F 38 °F 18 °F (1989)
Degree Days  
Heating Degree Days 22 15  
Month to date heating degree days 44  
Since 1 July heating degree days 362  
Cooling Degree Days 0 0  
Month to date cooling degree days 0  
Year to date cooling degree days 445  
Moisture  
Dew Point 39 °F    
Average Humidity 89    
Maximum Humidity 100    
Minimum Humidity 71    
Precipitation  
Precipitation 0.07 in 0.07 in 0.47 in (2006)
Month to date precipitation 0.19  
Year to date precipitation 16.38  
Sea Level Pressure  
Sea Level Pressure 29.93 in    
Wind  
Wind Speed 11 mph (North)    
Max Wind Speed 31 mph    
Max Gust Speed 39 mph    
Visibility 10 miles    
Events Rain    
T = Trace of Precipitation, MM = Missing Value Source: NWS Daily Summary

Daily Weather History Graph

Daily Weather History Graph

Search for Another Location

Airport or City:

Trip Planner

Search our weather history database for the weather conditions in past years. The results will help you decide how hot, cold, wet, or windy it might be!

Date:

Astronomy

Oct. 03, 2012 Rise Set
Actual Time 7:34 AM CDT 7:06 PM CDT
Civil Twilight 7:04 AM CDT 7:37 PM CDT
Nautical Twilight 6:28 AM CDT 8:12 PM CDT
Astronomical Twilight 5:52 AM CDT 8:48 PM CDT
Moon 8:42 PM CDT (10/3) 11:16 AM CDT (10/3)
Length of Visible Light 12h 33m
Length of Day
11h 31m
Waning Gibbous, 88% of the Moon is Illuminated
Oct 3
Waning Gibbous
Oct 8
Last Quarter
Oct 15
New
Oct 21
First Quarter
Oct 29
Full

Hourly Weather History & Observations

Time (CDT) Temp. Windchill Dew Point Humidity Pressure Visibility Wind Dir Wind Speed Gust Speed Precip Events Conditions
12:15 AM 42.8 °F 40.1 °F 37.4 °F 81% 29.80 in 10.0 mi West 4.6 mph - N/A   Clear
12:35 AM 41.0 °F - 35.6 °F 81% 29.80 in 10.0 mi Calm Calm - N/A   Clear
12:55 AM 41.0 °F - 35.6 °F 81% 29.80 in 10.0 mi Calm Calm - N/A   Clear
1:15 AM 37.4 °F 33.8 °F 33.8 °F 87% 29.81 in 10.0 mi SW 4.6 mph - N/A   Clear
1:35 AM 39.2 °F 37.0 °F 35.6 °F 87% 29.82 in 10.0 mi SSW 3.5 mph - N/A   Clear
1:55 AM 37.4 °F 32.8 °F 35.6 °F 93% 29.82 in 10.0 mi SSW 5.8 mph - N/A   Clear
2:15 AM 39.2 °F 34.2 °F 35.6 °F 87% 29.83 in 10.0 mi SSW 6.9 mph - N/A   Clear
2:35 AM 42.8 °F - 37.4 °F 81% 29.83 in 10.0 mi Calm Calm - N/A   Clear
2:55 AM 39.2 °F 33.6 °F 37.4 °F 93% 29.83 in 10.0 mi NW 8.1 mph - N/A   Clear
3:15 AM 37.4 °F 30.8 °F 35.6 °F 93% 29.85 in 10.0 mi WSW 9.2 mph - N/A   Clear
3:35 AM 37.4 °F - 35.6 °F 93% 29.84 in 10.0 mi Calm Calm - N/A   Clear
3:55 AM 37.4 °F 34.9 °F 33.8 °F 87% 29.86 in 10.0 mi SW 3.5 mph - N/A   Clear
4:15 AM 39.2 °F 33.6 °F 35.6 °F 87% 29.87 in 10.0 mi West 8.1 mph - N/A   Clear
4:35 AM 41.0 °F 37.1 °F 37.4 °F 87% 29.88 in 10.0 mi NW 5.8 mph - N/A   Clear
4:55 AM 42.8 °F 41.1 °F 37.4 °F 81% 29.89 in 10.0 mi WNW 3.5 mph - N/A   Clear
5:15 AM 44.6 °F 42.2 °F 39.2 °F 81% 29.88 in 10.0 mi North 4.6 mph - N/A   Clear
5:35 AM 46.4 °F 42.4 °F 41.0 °F 81% 29.89 in 10.0 mi North 8.1 mph - N/A   Clear
5:55 AM 46.4 °F 42.9 °F 41.0 °F 81% 29.89 in 10.0 mi North 6.9 mph - N/A   Partly Cloudy
6:15 AM 46.4 °F 41.1 °F 39.2 °F 76% 29.90 in 10.0 mi NNW 11.5 mph - N/A   Scattered Clouds
6:55 AM 44.6 °F 38.4 °F 39.2 °F 81% 29.91 in 10.0 mi North 12.7 mph - N/A   Mostly Cloudy
7:15 AM 44.6 °F 38.8 °F 39.2 °F 81% 29.92 in 10.0 mi North 11.5 mph - N/A   Partly Cloudy
7:35 AM 44.6 °F 39.7 °F 37.4 °F 76% 29.91 in 10.0 mi North 9.2 mph - N/A   Scattered Clouds
7:55 AM 44.6 °F 41.4 °F 37.4 °F 76% 29.91 in 10.0 mi NE 5.8 mph - N/A   Mostly Cloudy
8:15 AM 42.8 °F 39.3 °F 39.2 °F 87% 29.92 in 10.0 mi North 5.8 mph - N/A   Scattered Clouds
8:35 AM 42.8 °F 38.6 °F 37.4 °F 81% 29.92 in 10.0 mi NNE 6.9 mph - N/A   Clear
8:55 AM 42.8 °F 39.3 °F 37.4 °F 81% 29.94 in 10.0 mi North 5.8 mph - N/A   Partly Cloudy
9:15 AM 44.6 °F 40.2 °F 37.4 °F 76% 29.93 in 10.0 mi North 8.1 mph - N/A   Mostly Cloudy
9:35 AM 46.4 °F 40.7 °F 37.4 °F 71% 29.92 in 10.0 mi North 12.7 mph - N/A   Overcast
9:55 AM 46.4 °F 39.8 °F 37.4 °F 71% 29.92 in 10.0 mi NNE 16.1 mph - N/A   Mostly Cloudy
10:15 AM 46.4 °F 39.8 °F 37.4 °F 71% 29.92 in 10.0 mi North 16.1 mph - N/A   Scattered Clouds
10:35 AM 46.4 °F 40.1 °F 39.2 °F 76% 29.92 in 10.0 mi NNE 15.0 mph - N/A Rain Light Rain
10:55 AM 44.6 °F 37.2 °F 39.2 °F 81% 29.91 in 5.0 mi NNE 17.3 mph - 0.01 in Rain Light Rain
11:35 AM 42.8 °F 35.1 °F 41.0 °F 93% 29.91 in 3.0 mi NNE 16.1 mph - 0.05 in Rain Light Rain
1:15 PM 46.4 °F 41.5 °F 46.4 °F 100% 29.96 in 10.0 mi NNE 10.4 mph - N/A Rain Light Rain
1:35 PM 44.6 °F 37.8 °F 44.6 °F 100% 29.95 in 10.0 mi NNE 15.0 mph 18.4 mph N/A   Overcast
1:55 PM 46.4 °F 38.1 °F 44.6 °F 93% 29.92 in 10.0 mi NNE 24.2 mph 31.1 mph N/A   Overcast
2:35 PM 48.2 °F - 46.4 °F 93% 29.94 in 10.0 mi NE 19.6 mph 32.2 mph N/A   Overcast
2:55 PM 48.2 °F - 44.6 °F 87% 29.93 in 10.0 mi NNE 25.3 mph 33.4 mph N/A   Overcast
3:15 PM 46.4 °F 38.3 °F 44.6 °F 93% 29.96 in 10.0 mi NNE 23.0 mph 33.4 mph N/A   Overcast
3:35 PM 46.4 °F 38.5 °F 44.6 °F 93% 29.97 in 10.0 mi NNE 21.9 mph 29.9 mph N/A Rain Light Rain
3:55 PM 46.4 °F 38.7 °F 42.8 °F 87% 29.97 in 10.0 mi NNE 20.7 mph 32.2 mph N/A   Mostly Cloudy
4:15 PM 44.6 °F 36.9 °F 42.8 °F 93% 29.97 in 10.0 mi NNE 18.4 mph 26.5 mph N/A Rain Light Rain
4:35 PM 44.6 °F 34.6 °F 44.6 °F 100% 29.95 in 10.0 mi NNE 31.1 mph 35.7 mph N/A Rain Light Rain
4:55 PM 44.6 °F 34.9 °F 44.6 °F 100% 29.96 in 10.0 mi NNE 28.8 mph 33.4 mph N/A   Overcast
5:15 PM 44.6 °F 35.3 °F 44.6 °F 100% 29.98 in 10.0 mi North 26.5 mph 32.2 mph N/A   Overcast
5:55 PM 42.8 °F 33.1 °F 41.0 °F 93% 29.99 in 10.0 mi North 25.3 mph 34.5 mph N/A   Overcast
6:15 PM 41.0 °F 30.5 °F 41.0 °F 100% 29.99 in 10.0 mi North 26.5 mph 34.5 mph N/A   Overcast
6:35 PM 41.0 °F 30.2 °F 41.0 °F 100% 30.01 in 10.0 mi North 27.6 mph 35.7 mph N/A   Overcast
6:55 PM 41.0 °F 30.7 °F 39.2 °F 93% 30.01 in 10.0 mi NNE 25.3 mph 35.7 mph N/A   Overcast
7:15 PM 41.0 °F 29.8 °F 39.2 °F 93% 30.01 in 10.0 mi NNE 29.9 mph 39.1 mph N/A   Overcast
7:55 PM 41.0 °F 30.5 °F 39.2 °F 93% 30.01 in 10.0 mi NNE 26.5 mph 33.4 mph N/A   Overcast
8:35 PM 39.2 °F 28.3 °F 39.2 °F 100% 30.03 in 10.0 mi North 25.3 mph 34.5 mph N/A   Overcast
8:55 PM 39.2 °F 28.7 °F 39.2 °F 100% 30.03 in 10.0 mi North 23.0 mph 32.2 mph N/A   Overcast
9:35 PM 39.2 °F 28.3 °F 39.2 °F 100% 30.04 in 10.0 mi North 25.3 mph 32.2 mph N/A   Overcast
9:55 PM 39.2 °F 28.3 °F 39.2 °F 100% 30.03 in 10.0 mi North 25.3 mph 34.5 mph N/A   Overcast
10:15 PM 39.2 °F 28.3 °F 37.4 °F 93% 30.04 in 10.0 mi North 25.3 mph 33.4 mph N/A Rain Light Rain
10:35 PM 37.4 °F 26.4 °F 37.4 °F 100% 30.05 in 10.0 mi NNE 23.0 mph 29.9 mph N/A   Overcast
10:55 PM 37.4 °F 25.9 °F 37.4 °F 100% 30.02 in 8.0 mi North 25.3 mph 31.1 mph N/A Rain Light Rain
11:15 PM 37.4 °F 25.6 °F 37.4 °F 100% 30.02 in 10.0 mi North 26.5 mph 29.9 mph N/A Rain Light Rain
11:35 PM 37.4 °F 25.6 °F 37.4 °F 100% 30.03 in 9.0 mi North 26.5 mph 31.1 mph N/A Rain Light Rain
11:55 PM 37.4 °F 26.6 °F 37.4 °F 100% 30.01 in 9.0 mi North 21.9 mph 31.1 mph 0.01 in Rain Light Rain